Regional Weather Roundup
Issued by NWS

Home | Current Version | Previous Version | Text Only | Print | Product List | Glossary On
Versions: 1 2 3 4 5 6 7 8 9 10 11 12 13 14 15 16 17 18 19 20 21 22 23 24 25 26 27 28 29 30 31 32 33 34 35 36 37 38 39 40 41 42 43 44 45 46 47 48 49 50
636
ASUS44 KJAN 201110
RWRMS

MISSISSIPPI HOURLY WEATHER ROUNDUP
NATIONAL WEATHER SERVICE JACKSON MS
600 AM CDT SAT SEP 20 2014

NOTE: "FAIR: INDICATES FEW OR NO CLOUDS BELOW 12,000 FEET WITH NO
SIGNIFICANT WEATHER AND/OR OBSTRUCTIONS TO VISIBILITY.

MSZ001>002-007>008-010>013-018>021-025>028-034>036-201200-
NORTHWEST MISSISSIPPI

CITY           SKY/WX    TMP DP  RH WIND       PRES   REMARKS
CLARKSDALE     FAIR      68  68 100 CALM      30.03R
CLEVELAND      FAIR      69  68  97 CALM      30.00R
GREENWOOD      CLEAR     71  65  81 E7        30.01R
GREENVILLE     CLEAR     66  64  93 CALM      30.00R
GRENADA        FAIR      70  66  88 E7        30.03R
OLIVE BRANCH   CLEAR     68  68 100 SE7       30.05R
OXFORD         FAIR      68  64  88 SE7       30.06R
TUNICA         SUNNY     66  64  94 CALM      30.03R
$$

MSZ003>006-009-014>017-022>024-029>033-037>039-201200-
NORTHEAST MISSISSIPPI

CITY           SKY/WX    TMP DP  RH WIND       PRES   REMARKS
COLUMBUS AFB   CLEAR     68  65  91 E1        30.05R
CORINTH        FOG       64  63  94 CALM      30.07R VSB 1/2
GOLDN TRIANGLE CLEAR     70  63  78 E9        30.05R
STARKVILLE     FAIR      68  64  88 E5        30.05R
TUPELO         CLEAR     69  65  86 CALM      30.06R
$$

MSZ040-058-201200-
CENTRAL MISSISSIPPI

CITY           SKY/WX    TMP DP  RH WIND       PRES   REMARKS
JACKSON INTL   CLEAR     67  66  97 CALM      30.01R
JACKSON HAWKNS CLEAR     71  68  90 CALM      30.01R
MERIDIAN KEY   CLEAR     68  65  90 NE7       30.02S
MERIDIAN NAS   CLEAR     68  65  90 E6        30.04R
RAYMOND        FAIR      66  61  82 CALM      30.01R HAZE
VICKSBURG      MOCLDY    65  64  97 CALM      30.00R
$$

MSZ059>079-201200-
SOUTH MISSISSIPPI

CITY           SKY/WX    TMP DP  RH WIND       PRES   REMARKS
BROOKHAVEN     FAIR      64  64 100 CALM      30.03R FOG
COLUMBIA       FAIR      64  64 100 CALM      29.99R FOG
HATTIESBURG    CLEAR     68  66  93 CALM      30.00R
MCCOMB         CLEAR     71  67  87 NE3       30.00R
NATCHEZ        CLEAR     66  64  94 CALM      30.00R
PINE BELT      CLEAR     66  63  88 N3        30.01R
$$

MSZ080>082-201200-
COASTAL MISSISSIPPI

CITY           SKY/WX    TMP DP  RH WIND       PRES   REMARKS
BILOXI         CLEAR     72  68  87 E8        29.96R
PASCAGOULA     CLEAR     70  67  90 NE5       29.97R
GULFPORT       CLEAR     72  67  84 NE7       29.95R
$$



USA.gov is the U.S. government's official web portal to all federal, state and local government web resources and services.